GW0687 Weather Reports


time (UTC)temp
C
wind
direction
speed
KPH
gust
KPH
rain 1hr
cm
rain 24hr
cm
rain mn
cm
humidity
%
barometer
mb
20260503010032 16 0.0 0.0 0.00 0.00 0.00 41 1010.5
20260503005531 16 0.0 0.0 0.00 0.00 0.00 41 1010.6
20260503005037 16 0.0 0.0 0.00 0.00 0.00 41 1010.7
20260503004531 16 0.0 0.0 0.00 0.00 0.00 43 1010.7
20260503004032 16 0.0 0.0 0.00 0.00 0.00 42 1010.9
20260503003530 16 0.0 0.0 0.00 0.00 0.00 41 1010.8
20260503003032 16 0.0 0.0 0.00 0.00 0.00 42 1010.8
20260503002531 16 0.0 0.0 0.00 0.00 0.00 41 1010.8
20260503002031 16 0.0 0.0 0.00 0.00 0.00 40 1011.1
20260503001530 16 0.0 0.0 0.00 0.00 0.00 40 1011.1
20260503001036 17 0.0 0.0 0.00 0.00 0.00 38 1011.0
20260503000531 17 0.0 0.0 0.00 0.00 0.00 38 1011.1
20260503000031 17 0.0 0.0 0.00 0.00 0.00 38 1010.9
20260502235531 17 0.0 0.0 0.00 0.00 0.00 36 1010.9
20260502235031 17 0.0 0.0 0.00 0.00 0.00 36 1010.8
20260502234532 17 0.0 0.0 0.00 0.00 0.00 36 1010.9
20260502234031 17 0.0 0.0 0.00 0.00 0.00 35 1010.8
20260502233531 17 0.0 0.0 0.00 0.00 0.00 39 1010.9
20260502233031 17 0.0 0.0 0.00 0.00 0.00 37 1010.9
20260502232531 17 0.0 0.0 0.00 0.00 0.00 37 1011.0
20260502232033 17 0.0 0.0 0.00 0.00 0.00 36 1011.0
20260502231033 17 0.0 0.0 0.00 0.00 0.00 37 1011.1
20260502230531 17 0.0 0.0 0.00 0.00 0.00 37 1011.2
20260502230033 17 0.0 0.0 0.00 0.00 0.00 36 1011.2
20260502225530 17 0.0 0.0 0.00 0.00 0.00 37 1011.3
20260502225036 17 0.0 0.0 0.00 0.00 0.00 37 1011.3
20260502224530 17 0.0 0.0 0.00 0.00 0.00 35 1011.3
20260502223530 17 0.0 0.0 0.00 0.00 0.00 34 1011.5
20260502223032 17 0.0 0.0 0.00 0.00 0.00 35 1011.5
20260502221530 17 0.0 0.0 0.00 0.00 0.00 33 1011.7
20260502221031 18 0.0 0.0 0.00 0.00 0.00 35 1011.7
20260502220033 17 0.0 0.0 0.00 0.00 0.00 33 1011.9
20260502215531 17 0.0 0.0 0.00 0.00 0.00 37 1011.9
20260502215031 17 0.0 0.0 0.00 0.00 0.00 33 1012.0
20260502214531 17 0.0 0.0 0.00 0.00 0.00 33 1012.0
20260502214031 17 0.0 0.0 0.00 0.00 0.00 35 1012.1
20260502213531 17 0.0 0.0 0.00 0.00 0.00 34 1012.2
20260502213034 17 0.0 0.0 0.00 0.00 0.00 34 1012.2
20260502212534 17 0.0 0.0 0.00 0.00 0.00 34 1012.3
20260502211532 17 0.0 0.0 0.00 0.00 0.00 34 1012.4
20260502211033 17 0.0 0.0 0.00 0.00 0.00 36 1012.5
20260502210531 17 0.0 0.0 0.00 0.00 0.00 34 1012.6
20260502210035 17 0.0 0.0 0.00 0.00 0.00 33 1012.7
20260502205530 17 0.0 0.0 0.00 0.00 0.00 34 1012.9
20260502204531 17 0.0 0.0 0.00 0.00 0.00 35 1013.1
20260502204031 17 0.0 0.0 0.00 0.00 0.00 34 1013.1
20260502203531 17 0.0 0.0 0.00 0.00 0.00 34 1013.3
20260502203031 17 0.0 0.0 0.00 0.00 0.00 35 1013.3
20260502202530 16 0.0 0.0 0.00 0.00 0.00 34 1013.5
20260502202032 16 0.0 0.0 0.00 0.00 0.00 34 1013.5
20260502201530 17 0.0 0.0 0.00 0.00 0.00 35 1013.7
20260502201031 17 0.0 0.0 0.00 0.00 0.00 35 1013.7
20260502200530 16 0.0 0.0 0.00 0.00 0.00 34 1013.8
20260502200236 16 0.0 0.0 0.00 0.00 0.00 34 1014.0
20260502195037 16 0.0 0.0 0.00 0.00 0.00 35 1014.3
20260502194531 16 0.0 0.0 0.00 0.00 0.00 39 1014.4
20260502193532 16 0.0 0.0 0.00 0.00 0.00 34 1014.5
20260502192531 16 0.0 0.0 0.00 0.00 0.00 36 1014.7
20260502192033 16 0.0 0.0 0.00 0.00 0.00 35 1014.8
20260502191531 16 0.0 0.0 0.00 0.00 0.00 36 1014.8
20260502191032 16 0.0 0.0 0.00 0.00 0.00 35 1014.7
20260502190533 16 0.0 0.0 0.00 0.00 0.00 37 1015.0
20260502190035 15 0.0 0.0 0.00 0.00 0.00 35 1015.1
20260502185530 15 0.0 0.0 0.00 0.00 0.00 35 1015.2
20260502185032 15 0.0 0.0 0.00 0.00 0.00 36 1015.2
20260502184531 15 0.0 0.0 0.00 0.00 0.00 37 1015.3
20260502184033 15 0.0 0.0 0.00 0.00 0.00 35 1015.5
20260502183530 15 0.0 0.0 0.00 0.00 0.00 35 1015.5
20260502183031 15 0.0 0.0 0.00 0.00 0.00 36 1015.5
20260502182531 15 0.0 0.0 0.00 0.00 0.00 38 1015.6
20260502182032 15 0.0 0.0 0.00 0.00 0.00 38 1015.7
20260502181532 14 0.0 0.0 0.00 0.00 0.00 36 1015.8
20260502181033 14 0.0 0.0 0.00 0.00 0.00 39 1015.8
20260502164031 13 0.0 0.0 0.00 0.00 0.00 41 1017.2
20260502163531 13 0.0 0.0 0.00 0.00 0.00 39 1017.3
20260502163034 13 0.0 0.0 0.00 0.00 0.00 37 1017.5
20260502162530 13 0.0 0.0 0.00 0.00 0.00 40 1017.5
20260502162032 13 0.0 0.0 0.00 0.00 0.00 41 1017.5
20260502161532 12 0.0 0.0 0.00 0.00 0.00 43 1017.6
20260502152032 11 0.0 0.0 0.00 0.00 0.00 46 1017.9
20260502151030 11 0.0 0.0 0.00 0.00 0.00 50 1018.1
20260502150531 11 0.0 0.0 0.00 0.00 0.00 50 1018.1
20260502130529 5 0.0 0.0 0.00 0.00 0.00 64 1018.6
20260502122530 3 0.0 0.0 0.00 0.00 0.00 69 1018.5
20260502122033 3 0.0 0.0 0.00 0.00 0.00 71 1018.5
20260502121530 3 0.0 0.0 0.00 0.00 0.00 71 1018.4
20260502121031 2 0.0 0.0 0.00 0.00 0.00 73 1018.5
20260502120530 2 0.0 0.0 0.00 0.00 0.00 75 1018.5
20260502115530 2 0.0 0.0 0.00 0.00 0.00 77 1018.5
20260502115032 1 0.0 0.0 0.00 0.00 0.00 76 1018.5
20260502114032 1 0.0 0.0 0.00 0.00 0.00 76 1018.4
20260502113529 1 0.0 0.0 0.00 0.00 0.00 75 1018.3
20260502113030 1 0.0 0.0 0.00 0.00 0.00 74 1018.2
20260502112530 2 0.0 0.0 0.00 0.00 0.00 73 1018.2
20260502112031 2 0.0 0.0 0.00 0.00 0.00 73 1018.2
20260502111528 2 0.0 0.0 0.00 0.00 0.00 73 1018.2
20260502111030 2 0.0 0.0 0.00 0.00 0.00 73 1018.2
20260502110529 2 0.0 0.0 0.00 0.00 0.00 73 1018.1
20260502105529 2 0.0 0.0 0.00 0.00 0.00 73 1018.2
20260502105035 2 0.0 0.0 0.00 0.00 0.00 73 1018.1
20260502104530 2 0.0 0.0 0.00 0.00 0.00 73 1018.1
20260502103530 2 0.0 0.0 0.00 0.00 0.00 73 1018.2
20260502103032 2 0.0 0.0 0.00 0.00 0.00 72 1018.1
20260502101030 2 0.0 0.0 0.00 0.00 0.00 70 1018.1
20260502100530 2 0.0 0.0 0.00 0.00 0.00 70 1018.1
20260502091530 2 0.0 0.0 0.00 0.00 0.00 70 1018.0
20260502091032 3 0.0 0.0 0.00 0.00 0.00 69 1018.0
20260502090531 3 0.0 0.0 0.00 0.00 0.00 69 1018.0
20260502071529 3 0.0 0.0 0.00 0.00 0.00 66 1018.2
20260502071032 3 0.0 0.0 0.00 0.00 0.00 66 1018.3
20260502070034 3 0.0 0.0 0.00 0.00 0.00 66 1018.3
20260502065530 3 0.0 0.0 0.00 0.00 0.00 66 1018.4
20260502065030 3 0.0 0.0 0.00 0.00 0.00 66 1018.5
20260502064530 3 0.0 0.0 0.00 0.00 0.00 67 1018.4
20260502064030 3 0.0 0.0 0.00 0.00 0.00 68 1018.4
20260502063529 3 0.0 0.0 0.00 0.00 0.00 68 1018.5
20260502063029 3 0.0 0.0 0.00 0.00 0.00 68 1018.5
20260502062529 3 0.0 0.0 0.00 0.00 0.00 68 1018.5
20260502062030 3 0.0 0.0 0.00 0.00 0.00 68 1018.5
20260502061529 2 0.0 0.0 0.00 0.00 0.00 68 1018.6
20260502061032 2 0.0 0.0 0.00 0.00 0.00 69 1018.6
20260502060032 2 0.0 0.0 0.00 0.00 0.00 69 1018.5
20260502055529 2 0.0 0.0 0.00 0.00 0.00 69 1018.6
20260502055030 2 0.0 0.0 0.00 0.00 0.00 69 1018.6
20260502054531 2 0.0 0.0 0.00 0.00 0.00 69 1018.6
20260502054032 2 0.0 0.0 0.00 0.00 0.00 68 1018.6
20260502053529 2 0.0 0.0 0.00 0.00 0.00 68 1018.7
20260502052031 3 0.0 0.0 0.00 0.00 0.00 67 1018.7
20260502051529 3 0.0 0.0 0.00 0.00 0.00 67 1018.6
20260502051031 3 0.0 0.0 0.00 0.00 0.00 67 1018.7
20260502050530 3 0.0 0.0 0.00 0.00 0.00 66 1018.6
20260502045531 3 0.0 0.0 0.00 0.00 0.00 66 1018.6
20260502045032 3 0.0 0.0 0.00 0.00 0.00 66 1018.5
20260502044531 3 0.0 0.0 0.00 0.00 0.00 66 1018.5
20260502043531 3 0.0 0.0 0.00 0.00 0.00 65 1018.6
20260502043032 3 0.0 0.0 0.00 0.00 0.00 63 1018.5
20260502042531 3 0.0 0.0 0.00 0.00 0.00 63 1018.6
20260502042031 3 0.0 0.0 0.00 0.00 0.00 63 1018.5
20260502041531 3 0.0 0.0 0.00 0.00 0.00 64 1018.5
20260502041032 3 0.0 0.0 0.00 0.00 0.00 64 1018.5
20260502040531 3 0.0 0.0 0.00 0.00 0.00 64 1018.5
20260502040032 3 0.0 0.0 0.00 0.00 0.00 63 1018.5
20260502035032 3 0.0 0.0 0.00 0.00 0.00 62 1018.6
20260502034530 3 0.0 0.0 0.00 0.00 0.00 62 1018.6
20260502034032 3 0.0 0.0 0.00 0.00 0.00 61 1018.7
20260502033530 3 0.0 0.0 0.00 0.00 0.00 62 1018.6
20260502033032 3 0.0 0.0 0.00 0.00 0.00 60 1018.7
20260502032531 4 0.0 0.0 0.00 0.00 0.00 60 1018.7
20260502032032 4 0.0 0.0 0.00 0.00 0.00 60 1018.6
20260502031531 4 0.0 0.0 0.00 0.00 0.00 60 1018.6
20260502031035 4 0.0 0.0 0.00 0.00 0.00 60 1018.6
20260502030531 4 0.0 0.0 0.00 0.00 0.00 60 1018.5
20260502030033 4 0.0 0.0 0.00 0.00 0.00 59 1018.6
20260502025530 4 0.0 0.0 0.00 0.00 0.00 59 1018.5
20260502025031 4 0.0 0.0 0.00 0.00 0.00 58 1018.6
20260502024033 5 0.0 0.0 0.00 0.00 0.00 55 1018.6
20260502023532 5 0.0 0.0 0.00 0.00 0.00 56 1018.6
20260502023035 5 0.0 0.0 0.00 0.00 0.00 54 1018.6
20260502022531 5 0.0 0.0 0.00 0.00 0.00 56 1018.6
20260502022032 5 0.0 0.0 0.00 0.00 0.00 57 1018.5
20260502021530 5 0.0 0.0 0.00 0.00 0.00 56 1018.5
20260502021031 5 0.0 0.0 0.00 0.00 0.00 57 1018.5
20260502020531 5 0.0 0.0 0.00 0.00 0.00 57 1018.5
20260502020043 6 0.0 0.0 0.00 0.00 0.00 57 1018.4
20260502015033 6 0.0 0.0 0.00 0.00 0.00 53 1018.3
20260502014533 6 0.0 0.0 0.00 0.00 0.00 51 1018.1
20260502014035 6 0.0 0.0 0.00 0.00 0.00 49 1018.2
20260502013035 7 0.0 0.0 0.00 0.00 0.00 47 1018.2
20260502012532 7 0.0 0.0 0.00 0.00 0.00 47 1018.1
20260502012033 7 0.0 0.0 0.00 0.00 0.00 46 1018.1
20260502011533 7 0.0 0.0 0.00 0.00 0.00 46 1018.1
20260502011033 8 0.0 0.0 0.00 0.00 0.00 42 1018.0
20260502010533 8 0.0 0.0 0.00 0.00 0.00 42 1018.1